Regional Weather Roundup
Issued by NWS Goodland, KS

Home | Current Version | Previous Version | Graphics & Text | Print | Product List | Glossary On
Versions: 1 2 3 4 5 6 7 8 9 10 11 12 13 14 15 16 17 18 19 20 21 22 23 24 25 26 27 28 29 30 31 32 33 34 35 36 37 38 39 40 41 42 43 44 45 46 47 48 49 50
669
ASUS43 KGLD 032059
RWRGLD

GOODLAND FORECAST AREA HOURLY WEATHER ROUNDUP
NATIONAL WEATHER SERVICE GOODLAND KS
200 PM MST SAT DEC 03 2016

...OFFICIAL OBSERVATIONS...

CITY           SKY/WX    TMP DP  RH WIND       PRES   REMARKS
GOODLAND KS    MOSUNNY   39  28  64 S9        29.97F
HILL CITY KS   CLOUDY    33  32  96 SE5       30.07F FOG
IMPERIAL NEB   SUNNY     45  18  34 SW12      29.97F
MCCOOK NEB     CLOUDY    38  32  79 S13       30.03F
AKRON CO       MOSUNNY   41  18  39 N3        29.94F
BURLINGTON CO  SUNNY     42  24  49 S10       29.96F
LIMON CO       SUNNY     43  12  28 N12       29.93S
$$

...UNOFFICIAL OBSERVATIONS...

CITY           SKY/WX    TMP DP  RH WIND       PRES   REMARKS
COLBY KS       CLOUDY    37  36  93 S6        30.02F
LENORA KS        N/A     33  32  96 MISG        N/A
NORTON KS      LGT SNOW  34  30  86 E5        30.05F
SHARON SPRINGS   N/A     41  32  69 S8          N/A
TRENTON NEB      N/A     42  32  68 SW9         N/A
KIT CARSON CO    N/A     42  28  58 MISG        N/A
YUMA CO        FAIR      41  19  42 NW7       29.95F
$$




USA.gov is the U.S. government's official web portal to all federal, state and local government web resources and services.